Weather observations for the past three days for
New Braunfels National Airport
| Date | Time (cdt) | Wind (mph) | Vis. (mi.) | Weather | Sky Cond. | Temperature (ºF) | Relative Humidity | Wind Chill (°F) | Heat Index (°F) | Pressure | Precipitation (in) | ||||||
|---|---|---|---|---|---|---|---|---|---|---|---|---|---|---|---|---|---|
| Air | Dwpt | 6 hour | altimeter (in) | sea level (mb) | 1 hr | 3 hr | 6 hr | ||||||||||
| Max. | Min. | ||||||||||||||||
| 04 | 08:51 | S 6 | 10.00 | Overcast | OVC023 | 64 | 57.9 | 81% | 29.97 | 1014.5 | |||||||
| 04 | 07:51 | Calm | 10.00 | Overcast | OVC025 | 62.1 | 57.9 | 86% | 29.97 | 1014.2 | |||||||
| 04 | 06:51 | Calm | 10.00 | Fair | CLR | 59 | 55.9 | 64.9 | 59 | 90% | 29.96 | 1013.8 | |||||
| 04 | 05:51 | Calm | 10.00 | Fair | CLR | 59 | 55.9 | 90% | 29.96 | 1014.0 | |||||||
| 04 | 04:51 | S 3 | 10.00 | Fair | CLR | 59 | 55 | 87% | 29.96 | 1014.1 | |||||||
| 04 | 03:51 | S 3 | 10.00 | Fair | CLR | 60.1 | 55 | 84% | 29.98 | 1014.6 | |||||||
| 04 | 02:51 | S 5 | 10.00 | Fair | CLR | 61 | 55 | 81% | 29.98 | 1014.7 | |||||||
| 04 | 01:51 | S 7 | 10.00 | Fair | CLR | 64 | 55.9 | 75% | 30.02 | 1015.9 | |||||||
| 04 | 00:51 | S 9 | 10.00 | Fair | CLR | 64.9 | 55 | 75.9 | 64.9 | 70% | 30.04 | 1016.5 | |||||
| 03 | 23:51 | S 10 | 10.00 | Fair | CLR | 66 | 54 | 65% | 30.04 | 1016.6 | |||||||
| 03 | 22:51 | S 14 | 10.00 | Fair | CLR | 66.9 | 52 | 59% | 30.04 | 1016.7 | |||||||
| 03 | 21:51 | S 10 | 10.00 | Fair | CLR | 68 | 52 | 57% | 30.04 | 1016.7 | |||||||
| 03 | 20:51 | SE 7 | 10.00 | Fair | CLR | 66 | 53.1 | 63% | 30.02 | 1016.2 | |||||||
| 03 | 19:51 | S 8 | 10.00 | Fair | CLR | 70 | 51.1 | 51% | 30.01 | 1015.9 | |||||||
| 03 | 18:51 | S 9 | 10.00 | Fair | CLR | 75.9 | 48.9 | 79 | 75.9 | 39% | 78 | 30.03 | 1016.4 | ||||
| 03 | 17:51 | SE 9 | 10.00 | Fair | CLR | 77 | 48.9 | 37% | 78 | 30.03 | 1016.5 | ||||||
| 03 | 16:51 | S 8 | 10.00 | Fair | CLR | 79 | 48 | 34% | 79 | 30.06 | 1017.4 | ||||||
| 03 | 15:51 | S 9 G 23 | 10.00 | Fair | CLR | 78.1 | 45 | 31% | 78 | 30.09 | 1018.5 | ||||||
| 03 | 14:51 | SE 10 G 17 | 10.00 | Fair | CLR | 77 | 46.9 | 35% | 78 | 30.12 | 1019.6 | ||||||
| 03 | 13:51 | S 9 G 21 | 10.00 | Fair | CLR | 77 | 45 | 32% | 78 | 30.15 | 1020.5 | ||||||
| 03 | 12:51 | Vrbl 6 G 20 | 10.00 | Fair | CLR | 75.9 | 46.9 | 77 | 50 | 36% | 78 | 30.18 | 1021.4 | ||||
| 03 | 11:51 | SE 8 | 10.00 | Fair | CLR | 73.9 | 48 | 40% | 30.2 | 1022.3 | |||||||
| 03 | 10:51 | S 10 | 10.00 | Fair | CLR | 73 | 50 | 44% | 30.22 | 1022.7 | |||||||
| 03 | 09:51 | SW 3 | 10.00 | Fair | CLR | 69.1 | 51.1 | 53% | 30.21 | 1022.6 | |||||||
| 03 | 08:51 | Calm | 10.00 | Fair | CLR | 62.1 | 54 | 75% | 30.2 | 1022.2 | |||||||
| 03 | 07:51 | NW 3 | 10.00 | Fair | CLR | 55 | 52 | 90% | 30.19 | 1022.0 | |||||||
| 03 | 06:51 | Calm | 10.00 | Fair | CLR | 51.1 | 48 | 55 | 50 | 89% | 30.17 | 1021.4 | |||||
| 03 | 05:51 | NW 7 | 10.00 | Fair | CLR | 51.1 | 48.9 | 92% | 30.16 | 1020.8 | |||||||
| 03 | 04:51 | NW 5 | 10.00 | Fair | CLR | 52 | 48.9 | 89% | 30.15 | 1020.4 | |||||||
| 03 | 03:51 | NW 3 | 10.00 | Fair | CLR | 52 | 48.9 | 89% | 30.15 | 1020.4 | |||||||
| 03 | 02:51 | NW 5 | 10.00 | Fair | CLR | 53.1 | 50 | 89% | 30.15 | 1020.6 | |||||||
| 03 | 01:51 | W 3 | 10.00 | Fair | CLR | 53.1 | 51.1 | 93% | 30.17 | 1021.2 | |||||||
| 03 | 00:51 | NW 5 | 10.00 | Fair | CLR | 55 | 52 | 72 | 54 | 90% | 30.17 | 1021.1 | |||||
| 02 | 23:51 | NW 5 | 10.00 | Fair | CLR | 55.9 | 52 | 87% | 30.16 | 1020.8 | |||||||
| 02 | 22:51 | Calm | 10.00 | Fair | CLR | 60.1 | 48.9 | 67% | 30.16 | 1020.9 | |||||||
| 02 | 21:51 | Calm | 10.00 | Fair | CLR | 61 | 48.9 | 65% | 30.14 | 1020.3 | |||||||
| 02 | 20:51 | E 6 | 10.00 | Fair | CLR | 64 | 48.9 | 58% | 30.12 | 1019.4 | |||||||
| 02 | 19:51 | E 6 | 10.00 | Fair | CLR | 66.9 | 48.9 | 53% | 30.1 | 1019.1 | |||||||
| 02 | 18:51 | E 12 | 10.00 | Fair | CLR | 72 | 46 | 75 | 69.1 | 40% | 30.1 | 1018.9 | |||||
| 02 | 17:51 | NE 13 | 10.00 | Fair | CLR | 73.9 | 45 | 36% | 30.1 | 1018.7 | |||||||
| 02 | 16:51 | NE 14 | 10.00 | Fair | CLR | 75 | 45 | 34% | 77 | 30.1 | 1018.8 | ||||||
| 02 | 15:51 | NE 14 G 22 | 10.00 | Fair | CLR | 75 | 46.9 | 37% | 77 | 30.12 | 1019.6 | ||||||
| 02 | 14:51 | NE 16 G 22 | 10.00 | Fair | CLR | 73 | 48 | 41% | 30.14 | 1020.1 | |||||||
| 02 | 13:51 | N 10 G 21 | 10.00 | Fair | CLR | 71.1 | 48.9 | 46% | 30.15 | 1020.6 | |||||||
| 02 | 12:51 | NE 9 | 10.00 | Fair | CLR | 69.1 | 46.9 | 70 | 50 | 45% | 30.18 | 1021.7 | |||||
| 02 | 11:51 | NE 14 G 21 | 10.00 | Fair | CLR | 68 | 46 | 45% | 30.2 | 1022.1 | |||||||
| 02 | 10:51 | NE 14 | 10.00 | Fair | CLR | 64.9 | 48 | 54% | 30.19 | 1022.0 | |||||||
| 02 | 09:51 | NE 10 | 10.00 | Fair | CLR | 63 | 46.9 | 56% | 30.18 | 1021.6 | |||||||
| 02 | 08:51 | N 14 | 10.00 | Fair | CLR | 59 | 48 | 67% | 30.16 | 1020.9 | |||||||
| 02 | 07:51 | N 9 | 10.00 | Fair | CLR | 54 | 46.9 | 77% | 30.14 | 1020.5 | |||||||
| 02 | 06:51 | NE 6 | 10.00 | Fair | CLR | 51.1 | 46.9 | 53.1 | 51.1 | 86% | 30.12 | 1019.7 | |||||
| 02 | 05:51 | N 10 | 10.00 | Fair | CLR | 51.1 | 46.9 | 86% | 30.1 | 1018.9 | |||||||
| 02 | 04:51 | N 9 | 10.00 | Fair | CLR | 51.1 | 48 | 89% | 30.08 | 1018.2 | |||||||
| 02 | 03:51 | N 6 | 10.00 | Fair | CLR | 52 | 48 | 86% | 30.06 | 1017.7 | |||||||
| 02 | 02:51 | N 9 | 10.00 | Fair | CLR | 53.1 | 48.9 | 86% | 30.04 | 1016.8 | |||||||
| 02 | 01:51 | N 13 | 10.00 | Fair | CLR | 53.1 | 48.9 | 86% | 30.04 | 1017.0 | |||||||
| 02 | 00:51 | N 14 | 10.00 | Fair | CLR | 53.1 | 48.9 | 57 | 53.1 | 86% | 30.04 | 1017.0 | |||||
| 01 | 23:51 | NE 13 G 22 | 10.00 | Mostly Cloudy | BKN060 | 55 | 48.9 | 80% | 30.05 | 1017.1 | |||||||
| 01 | 22:51 | N 16 | 10.00 | Overcast | BKN050 OVC060 | 55 | 48.9 | 80% | 30.04 | 1016.7 | |||||||
| 01 | 21:51 | NE 15 G 26 | 10.00 | Partly Cloudy | FEW060 SCT070 | 55 | 51.1 | 87% | 30 | 1015.6 | |||||||
| 01 | 20:51 | N 18 G 29 | 10.00 | Overcast | BKN013 OVC020 | 55.9 | 52 | 87% | 29.98 | 1015.0 | |||||||
| 01 | 19:51 | N 18 G 26 | 10.00 | Overcast | BKN014 OVC021 | 57.9 | 53.1 | 84% | 29.96 | 1014.0 | |||||||
| 01 | 18:51 | NE 18 G 36 | 10.00 | Overcast | BKN018 OVC024 | 59 | 54 | 66 | 59 | 83% | 29.92 | 1012.8 | 0.04 | ||||
| 01 | 17:51 | N 16 | 10.00 | Overcast | BKN013 OVC018 | 60.1 | 55.9 | 86% | 29.91 | 1012.3 | |||||||
| 01 | 16:51 | N 17 G 28 | 10.00 | Light Rain | BKN013 BKN027 OVC070 | 60.1 | 57 | 90% | 29.88 | 1011.5 | |||||||
| 01 | 15:51 | N 20 G 28 | 10.00 | Overcast | OVC014 | 62.1 | 57 | 84% | 29.86 | 1010.6 | 0.04 | ||||||
| 01 | 14:51 | NE 23 G 30 | 10.00 | Mostly Cloudy and Breezy | BKN012 BKN075 | 64.9 | 60.1 | 84% | 29.82 | 1009.2 | 0.01 | ||||||
| 01 | 13:51 | N 15 G 25 | 10.00 | Light Rain | FEW011 BKN065 OVC110 | 62.1 | 59 | 90% | 29.87 | 1010.9 | 0.03 | ||||||
| 01 | 12:51 | N 18 G 30 | 10.00 | Light Rain | BKN007 BKN012 OVC060 | 61 | 59 | 64 | 60.1 | 93% | 29.89 | 1011.7 | 0.04 | 0.16 | |||
| 01 | 11:51 | NE 18 G 25 | 10.00 | Overcast | OVC009 | 63 | 60.1 | 90% | 29.85 | 1010.2 | |||||||
| 01 | 10:51 | NE 22 G 31 | 10.00 | Light Rain and Breezy | SCT009 BKN038 OVC075 | 63 | 60.1 | 90% | 29.83 | 1009.7 | 0.07 | ||||||
| 01 | 09:51 | NE 18 | 10.00 | Light Rain | BKN008 OVC075 | 60.1 | 59 | 96% | 29.87 | 1010.9 | 0.01 | 0.05 | |||||
| Date | Time (cdt) | Wind (mph) | Vis. (mi.) | Weather | Sky Cond. | Air | Dwpt | Max. | Min. | Relative Humidity | Wind Chill (°F) | Heat Index (°F) | altimeter (in) | sea level (mb) | 1 hr | 3 hr | 6 hr |
| 6 hour | |||||||||||||||||
| Temperature (ºF) | Pressure | Precipitation (in) | |||||||||||||||